Location: Newark
(48.2308°N, 120.8549°W)
Time: 18:45:51
(UTC+00:00)

Transit 4A - All Passes

Search period start: 06 June 2020 00:00
Search period end: 16 June 2020 00:00
Orbit: 868 x 976 km, 66.8° (Epoch: 06 June)

Date Brightness Start Highest point End Pass type
(mag) Time Alt. Az. Time Alt. Az. Time Alt. Az.
06 Jun - 06:29:42 10° ESE 06:31:25 11° E 06:33:08 10° E visible
06 Jun - 08:10:50 10° SSW 08:16:35 67° ESE 08:22:30 10° NE visible
06 Jun - 09:58:15 10° W 10:03:25 31° NW 10:08:43 10° NNE visible
06 Jun - 11:48:44 10° NW 11:51:50 14° NNW 11:54:59 10° NNE daylight
06 Jun - 13:37:29 10° NNW 13:40:56 15° NNE 13:44:25 10° NE daylight
06 Jun - 15:23:35 10° NNW 15:29:10 36° NE 15:34:54 10° ESE daylight
06 Jun - 17:09:50 10° NW 17:15:53 59° WSW 17:22:03 10° SSE daylight
06 Jun - 18:59:56 10° W 19:01:02 10° W 19:02:08 10° WSW daylight
07 Jun - 06:36:40 10° SE 06:40:22 18° ESE 06:44:07 10° ENE visible
07 Jun - 08:20:03 10° SW 08:25:53 88° NW 08:31:53 10° NE visible
07 Jun - 10:08:17 10° W 10:13:05 25° NNW 10:17:59 10° NNE visible
07 Jun - 11:58:58 10° NW 12:01:46 13° N 12:04:35 10° NNE daylight
07 Jun - 13:46:50 10° NNW 13:50:47 17° NNE 13:54:47 10° ENE daylight
07 Jun - 15:32:50 10° NNW 15:38:43 46° NE 15:44:44 10° ESE daylight
07 Jun - 17:19:20 10° NW 17:25:05 42° WSW 17:30:57 10° S daylight
08 Jun - 06:44:42 10° SSE 06:49:23 26° ESE 06:54:08 10° NE visible
08 Jun - 08:29:27 10° SW 08:35:15 65° NW 08:41:13 10° NNE visible
08 Jun - 10:18:28 10° WNW 10:22:49 21° NNW 10:27:14 10° NNE visible
08 Jun - 12:09:01 10° NNW 12:11:41 13° N 12:14:25 10° NNE daylight
08 Jun - 13:56:07 10° NNW 14:00:35 21° NNE 14:05:08 10° ENE daylight
08 Jun - 15:42:06 10° NNW 15:48:11 62° NE 15:54:26 10° SE daylight
08 Jun - 17:28:58 10° NW 17:34:14 30° WSW 17:39:35 10° SSW daylight
09 Jun - 06:53:12 10° S 06:58:28 37° ESE 07:03:52 10° NE visible
09 Jun - 08:39:04 10° WSW 08:44:43 48° NW 08:50:31 10° NNE visible
09 Jun - 10:28:45 10° WNW 10:32:37 17° NNW 10:36:33 10° NNE visible
09 Jun - 12:18:49 10° NNW 12:21:38 13° N 12:24:30 10° NE daylight
09 Jun - 14:05:22 10° NNW 14:10:20 25° NNE 14:15:22 10° E daylight
09 Jun - 15:51:25 10° NW 15:57:36 83° NE 16:03:55 10° SE daylight
09 Jun - 17:38:51 10° WNW 17:43:18 21° WSW 17:47:48 10° SSW daylight
10 Jun - 07:02:00 10° SSW 07:07:39 53° ESE 07:13:25 10° NE visible
10 Jun - 08:48:51 10° WSW 08:54:14 37° NW 08:59:47 10° NNE visible
10 Jun - 10:39:04 10° NW 10:42:28 15° NNW 10:45:55 10° NNE visible
10 Jun - 12:28:23 10° NNW 12:31:33 14° NNE 12:34:46 10° NE daylight
10 Jun - 14:14:37 10° NNW 14:20:00 31° NE 14:25:29 10° E daylight
10 Jun - 16:00:46 10° NW 16:06:55 73° WSW 16:13:12 10° SSE daylight
10 Jun - 17:49:13 10° WNW 17:52:17 14° WSW 17:55:23 10° SW daylight
11 Jun - 05:28:55 10° SE 05:31:35 13° ESE 05:34:18 10° ENE visible
11 Jun - 07:11:04 10° SSW 07:16:53 76° ESE 07:22:51 10° NE visible
11 Jun - 08:58:47 10° W 09:03:51 29° NW 09:09:02 10° NNE visible
11 Jun - 10:49:22 10° NW 10:52:22 14° N 10:55:24 10° NNE visible
11 Jun - 12:37:49 10° NNW 12:41:27 16° NNE 12:45:08 10° NE daylight
11 Jun - 14:23:52 10° NNW 14:29:36 39° NE 14:35:27 10° ESE daylight
11 Jun - 16:10:12 10° NW 16:16:11 53° WSW 16:22:16 10° S daylight
12 Jun - 05:36:26 10° SSE 05:40:34 20° ESE 05:44:44 10° ENE visible
12 Jun - 07:20:22 10° SW 07:26:12 79° NW 07:32:13 10° NNE visible
12 Jun - 09:08:53 10° W 09:13:32 23° NNW 09:18:17 10° NNE visible
12 Jun - 10:59:32 10° NNW 11:02:18 13° N 11:05:05 10° NNE visible
12 Jun - 12:47:08 10° NNW 12:51:18 18° NNE 12:55:30 10° ENE daylight
12 Jun - 14:33:07 10° NNW 14:39:07 51° NE 14:45:14 10° ESE daylight
12 Jun - 16:19:44 10° NW 16:25:22 37° WSW 16:31:05 10° S daylight
13 Jun - 05:44:40 10° SSE 05:49:36 29° ESE 05:54:39 10° NE visible
13 Jun - 07:29:51 10° SW 07:35:36 58° NW 07:41:32 10° NNE visible
13 Jun - 09:19:06 10° WNW 09:23:18 19° NNW 09:27:34 10° NNE visible
13 Jun - 11:09:29 10° NNW 11:12:14 13° N 11:15:01 10° NNE visible
13 Jun - 12:56:24 10° NNW 13:01:04 22° NNE 13:05:49 10° E daylight
13 Jun - 14:42:24 10° NNW 14:48:34 69° NE 14:54:51 10° SE daylight
13 Jun - 16:29:27 10° NW 16:34:29 26° WSW 16:39:35 10° SSW daylight
14 Jun - 05:53:17 10° S 05:58:43 42° ESE 06:04:17 10° NE visible
14 Jun - 07:39:31 10° WSW 07:45:05 43° NW 07:50:49 10° NNE visible
14 Jun - 09:29:24 10° WNW 09:33:07 17° NNW 09:36:54 10° NNE visible
14 Jun - 11:19:13 10° NNW 11:22:11 14° N 11:25:10 10° NE visible
14 Jun - 13:05:40 10° NNW 13:10:47 27° NE 13:16:01 10° E daylight
14 Jun - 14:51:44 10° NW 14:57:56 89° SW 15:04:16 10° SSE daylight
14 Jun - 16:39:27 10° WNW 16:43:31 18° WSW 16:47:38 10° SW daylight
15 Jun - 06:02:12 10° SSW 06:07:55 61° ESE 06:13:48 10° NE visible
15 Jun - 07:49:21 10° WSW 07:54:39 33° NW 08:00:05 10° NNE visible
15 Jun - 09:39:43 10° NW 09:42:59 15° NNW 09:46:18 10° NNE visible
15 Jun - 11:28:44 10° NNW 11:32:05 15° NNE 11:35:30 10° NE daylight
15 Jun - 13:14:54 10° NNW 13:20:26 34° NE 13:26:05 10° ESE daylight
15 Jun - 15:01:06 10° NW 15:07:14 65° WSW 15:13:29 10° SSE daylight
15 Jun - 16:50:13 10° W 16:52:29 12° W 16:54:45 10° WSW daylight
